Regional Weather Roundup
Issued by NWS Little Rock, AR

Home | Current Version | Previous Version | Text Only | Print | Product List | Glossary On
Versions: 1 2 3 4 5 6 7 8 9 10 11 12 13 14 15 16 17 18 19 20 21 22 23 24 25 26 27 28 29 30 31 32
000
ASUS44 KLZK 142105
RWRLZK

WEATHER ROUNDUP FOR ARKANSAS
NATIONAL WEATHER SERVICE LITTLE ROCK AR
300 PM CST THU DEC 14 2017

NOTE: "FAIR" INDICATES FEW OR NO CLOUDS BELOW 12,000 FEET WITH NO
SIGNIFICANT WEATHER AND/OR OBSTRUCTIONS TO VISIBILITY.

ARZ001-003-010-029-142200-
NORTHWEST ARKANSAS

CITY           SKY/WX    TMP DP  RH WIND       PRES   REMARKS
FAYETTEVILLE   CLOUDY    42  26  53 N7        30.08R
FORT SMITH     SUNNY     53  27  36 NW14      30.07R
HARRISON       CLOUDY    40  23  50 NW8       30.05F
BENTONVILLE    CLOUDY    40  24  53 NW10      30.10S
ROGERS         CLOUDY    39  25  57 N8        30.08F
SILOAM SPGS    CLOUDY    41  26  55 N10       30.09F
HIGHFILL       CLOUDY    41  26  55 NW7       30.08S
SPRINGDALE     CLOUDY    41  25  52 N8        30.09S
$$

ARZ004-005-016-142200-
NORTH CENTRAL ARKANSAS

CITY           SKY/WX    TMP DP  RH WIND       PRES   REMARKS
BATESVILLE     MOSUNNY   47  25  42 N8        30.05S
FLIPPIN        CLOUDY    44  22  41 NW14      30.07F
MTN HOME       MOSUNNY   41  23  48 VRB6      30.05F
$$

ARZ040-041-142200-
WEST CENTRAL ARKANSAS

CITY           SKY/WX    TMP DP  RH WIND       PRES   REMARKS
MENA           NOT AVBL
MOUNT IDA      SUNNY     57  28  33 VRB6      29.98R
$$

ARZ009-017-025-026-028-142200-
NORTHEAST ARKANSAS

CITY           SKY/WX    TMP DP  RH WIND       PRES   REMARKS
CORNING        CLOUDY    43  25  49 CALM      30.06R
JONESBORO      CLOUDY    44  28  53 W3        30.06R
NEWPORT        CLOUDY    47  25  42 NW9       30.06R
WALNUT RIDGE   MOSUNNY   45  26  47 CALM      30.05S
BLYTHEVILLE    CLOUDY    44  29  55 N10       30.06S
NW BLYTHEVILLE CLOUDY    43  28  56 N8        30.06R
$$

ARZ022-023-033-042-044-142200-
CENTRAL ARKANSAS

CITY           SKY/WX    TMP DP  RH WIND       PRES   REMARKS
LITTLE ROCK    SUNNY     54  29  38 NW12      30.02S
N LITTLE ROCK    N/A     51  31  46 N7        30.04S
JACKSONVILLE   SUNNY     53  29  40 N9        30.01S
SEARCY         SUNNY     51  29  42 N8        30.04S
HOT SPRINGS    SUNNY     59  30  33 VRB6      29.99F
RUSSELLVILLE   SUNNY     52  26  36 N10       30.03S
CLINTON        FAIR      46  25  42 VRB6G14   30.05S
$$

ARZ036-142200-
EAST ARKANSAS

CITY           SKY/WX    TMP DP  RH WIND       PRES   REMARKS
WEST MEMPHIS   MOSUNNY   48  30  49 N12G20    30.03S
$$

ARZ050-053-066-070-073-142200-
SOUTHWEST ARKANSAS

CITY           SKY/WX    TMP DP  RH WIND       PRES   REMARKS
ARKADELPHIA    FAIR      60  31  33 NW9       29.99F
CAMDEN         SUNNY     61  28  29 VRB3      29.98S
TEXARKANA      SUNNY     60  29  30 CALM      29.99S
EL DORADO      MOSUNNY   59  34  39 N6        29.99S
DE QUEEN       SUNNY     60  26  27 N9G21     29.98S
$$

ARZ056-057-069-142200-
SOUTHEAST ARKANSAS

CITY           SKY/WX    TMP DP  RH WIND       PRES   REMARKS
PINE BLUFF     SUNNY     53  31  42 N9        30.01F
STUTTGART      SUNNY     51  31  46 N12       30.02S
MONTICELLO     SUNNY     55  32  41 NE8       30.00R

$$






USA.gov is the U.S. government's official web portal to all federal, state and local government web resources and services.